Weather in Novoikovskoye

Russia / Kurgan Oblast     55°56′55″N   64°51′33″E
temp.,
°C
wind,
m/s
gust,
m/s
humid.,
%
clouds,
%
prec.,
mm/h
press.,
hPa
HPBL,
m
28 february, sun
sun2823:00−17se61195100 0.3 1019443
02:00−16se61194100 0.4 1016430
05:00−16ese61095100 0.7 1014390
08:00−17ese61095100 0.3 1013340
11:00−16e6993100 0.4 1011344
14:00−14e6993100 0.1 1010417
17:00−13ene61092100 0.3 1009471
20:00−15ene51094100 0.1 1009401
1 march, mon
mon123:00−16ne599498 0.3 1010325
02:00−17ne4896100 0.1 1011320
05:00−19nne479795 0.3 1012237
08:00−20nne379896 0.1 1014244
11:00−17n359398 0.1 1015315
14:00−14n3389100 0.1 1016398
17:00−14nnw2392100 0.1 1017308
20:00−16n1196100 0.1 101720
2 march, tue
tue223:00−17sw019799 0.2 101820
02:00−18wsw129775 0.1 101720
05:00−20wsw2210081 0.1 101720
08:00−19sw229887 0.1 101620
11:00−15ssw239190 0.1 1015255
14:00−12sw3487100 0.0 1014456
17:00−12sw2494100 0.1 1013146
20:00−16ssw449680 0.0 101263
3 march, wed
wed323:00−19s469758 0.0 101287
02:00−20s479781 0.0 1010117
05:00−17sse489591 0.0 1009212
08:00−17sse5894100 0.0 1008253
11:00−14s5993100 0.1 1008345
14:00−9s61091100 0.1 1007529
17:00−8s61192100 0.2 1006554
20:00−9s61293100 0.3 1004481
4 march, thu
thu423:00−7s61293100 0.6 1003479
02:00−5sse61294100 0.3 1000465
05:00−4sse51195100 0.6 998414
08:00−4sse4996100 0.2 996303
11:00−2ssw5794100 0.4 996625
14:00−3sw5795100 0.3 997497
17:00−4wnw81194100 0.7 999564
20:00−7wnw61194100 0.4 1001445